﻿測定場所 (Monitoring sites),日付 (Measurement date),時間 (Measurement time),線量率 最大値 (max) μGy/h,線量率 最小値 (min) μGy/h,線量率 平均値 (average) μGy/h,
江東 (Koto),2020-08-30,23:01～24:00,0.0402,0.0365,0.0384,
江東 (Koto),2020-08-30,22:01～23:00,0.0402,0.0364,0.0383,
江東 (Koto),2020-08-30,21:01～22:00,0.0405,0.0357,0.0383,
江東 (Koto),2020-08-30,20:01～21:00,0.0408,0.0357,0.0383,
江東 (Koto),2020-08-30,19:01～20:00,0.0405,0.0358,0.0380,
江東 (Koto),2020-08-30,18:01～19:00,0.0414,0.0360,0.0381,
江東 (Koto),2020-08-30,17:01～18:00,0.0405,0.0357,0.0380,
江東 (Koto),2020-08-30,16:01～17:00,0.0398,0.0357,0.0379,
江東 (Koto),2020-08-30,15:01～16:00,0.0403,0.0357,0.0378,
江東 (Koto),2020-08-30,14:01～15:00,0.0407,0.0357,0.0382,
江東 (Koto),2020-08-30,13:01～14:00,0.0399,0.0364,0.0381,
江東 (Koto),2020-08-30,12:01～13:00,0.0402,0.0364,0.0382,
江東 (Koto),2020-08-30,11:01～12:00,0.0405,0.0358,0.0382,
江東 (Koto),2020-08-30,10:01～11:00,0.0411,0.0357,0.0382,
江東 (Koto),2020-08-30,09:01～10:00,0.0412,0.0349,0.0383,
江東 (Koto),2020-08-30,08:01～09:00,0.0400,0.0360,0.0384,
江東 (Koto),2020-08-30,07:01～08:00,0.0409,0.0359,0.0381,
江東 (Koto),2020-08-30,06:01～07:00,0.0401,0.0350,0.0379,
江東 (Koto),2020-08-30,05:01～06:00,0.0405,0.0365,0.0384,
江東 (Koto),2020-08-30,04:01～05:00,0.0405,0.0364,0.0382,
江東 (Koto),2020-08-30,03:01～04:00,0.0405,0.0357,0.0383,
江東 (Koto),2020-08-30,02:01～03:00,0.0405,0.0353,0.0383,
江東 (Koto),2020-08-30,01:01～02:00,0.0409,0.0359,0.0383,
江東 (Koto),2020-08-30,00:01～01:00,0.0399,0.0365,0.0381,
江東 (Koto),2020-08-29,23:01～24:00,0.0408,0.0357,0.0381,
江東 (Koto),2020-08-29,22:01～23:00,0.0400,0.0361,0.0382,
江東 (Koto),2020-08-29,21:01～22:00,0.0402,0.0359,0.0380,
江東 (Koto),2020-08-29,20:01～21:00,0.0401,0.0361,0.0381,
江東 (Koto),2020-08-29,19:01～20:00,0.0401,0.0356,0.0378,
江東 (Koto),2020-08-29,18:01～19:00,0.0402,0.0353,0.0377,
江東 (Koto),2020-08-29,17:01～18:00,0.0399,0.0357,0.0380,
江東 (Koto),2020-08-29,16:01～17:00,0.0397,0.0357,0.0379,
江東 (Koto),2020-08-29,15:01～16:00,0.0408,0.0362,0.0382,
江東 (Koto),2020-08-29,14:01～15:00,0.0405,0.0357,0.0381,
江東 (Koto),2020-08-29,13:01～14:00,0.0402,0.0361,0.0380,
江東 (Koto),2020-08-29,12:01～13:00,0.0409,0.0356,0.0382,
江東 (Koto),2020-08-29,11:01～12:00,0.0400,0.0355,0.0380,
江東 (Koto),2020-08-29,10:01～11:00,0.0411,0.0359,0.0382,
江東 (Koto),2020-08-29,09:01～10:00,0.0405,0.0361,0.0382,
江東 (Koto),2020-08-29,08:01～09:00,0.0405,0.0356,0.0381,
江東 (Koto),2020-08-29,07:01～08:00,0.0409,0.0360,0.0381,
江東 (Koto),2020-08-29,06:01～07:00,0.0400,0.0358,0.0381,
江東 (Koto),2020-08-29,05:01～06:00,0.0402,0.0362,0.0382,
江東 (Koto),2020-08-29,04:01～05:00,0.0401,0.0357,0.0380,
江東 (Koto),2020-08-29,03:01～04:00,0.0394,0.0360,0.0376,
江東 (Koto),2020-08-29,02:01～03:00,0.0399,0.0350,0.0380,
江東 (Koto),2020-08-29,01:01～02:00,0.0401,0.0360,0.0381,
江東 (Koto),2020-08-29,00:01～01:00,0.0403,0.0354,0.0381,
江東 (Koto),2020-08-28,23:01～24:00,0.0402,0.0356,0.0381,
江東 (Koto),2020-08-28,22:01～23:00,0.0407,0.0357,0.0379,
江東 (Koto),2020-08-28,21:01～22:00,0.0399,0.0362,0.0378,
江東 (Koto),2020-08-28,20:01～21:00,0.0399,0.0350,0.0376,
江東 (Koto),2020-08-28,19:01～20:00,0.0402,0.0351,0.0376,
江東 (Koto),2020-08-28,18:01～19:00,0.0398,0.0352,0.0375,
江東 (Koto),2020-08-28,17:01～18:00,0.0398,0.0357,0.0374,
江東 (Koto),2020-08-28,16:01～17:00,0.0401,0.0353,0.0376,
江東 (Koto),2020-08-28,15:01～16:00,0.0398,0.0348,0.0375,
江東 (Koto),2020-08-28,14:01～15:00,0.0401,0.0347,0.0377,
江東 (Koto),2020-08-28,13:01～14:00,0.0398,0.0355,0.0377,
江東 (Koto),2020-08-28,12:01～13:00,0.0394,0.0360,0.0378,
江東 (Koto),2020-08-28,11:01～12:00,0.0405,0.0363,0.0378,
江東 (Koto),2020-08-28,10:01～11:00,0.0415,0.0358,0.0378,
江東 (Koto),2020-08-28,09:01～10:00,0.0395,0.0354,0.0378,
江東 (Koto),2020-08-28,08:01～09:00,0.0403,0.0357,0.0377,
江東 (Koto),2020-08-28,07:01～08:00,0.0397,0.0354,0.0377,
江東 (Koto),2020-08-28,06:01～07:00,0.0406,0.0360,0.0380,
江東 (Koto),2020-08-28,05:01～06:00,0.0404,0.0359,0.0381,
江東 (Koto),2020-08-28,04:01～05:00,0.0411,0.0352,0.0380,
江東 (Koto),2020-08-28,03:01～04:00,0.0405,0.0358,0.0380,
江東 (Koto),2020-08-28,02:01～03:00,0.0406,0.0353,0.0380,
江東 (Koto),2020-08-28,01:01～02:00,0.0394,0.0343,0.0376,
江東 (Koto),2020-08-28,00:01～01:00,0.0409,0.0356,0.0379,
江東 (Koto),2020-08-27,23:01～24:00,0.0395,0.0352,0.0374,
江東 (Koto),2020-08-27,22:01～23:00,0.0392,0.0360,0.0375,
江東 (Koto),2020-08-27,21:01～22:00,0.0396,0.0354,0.0376,
江東 (Koto),2020-08-27,20:01～21:00,0.0407,0.0353,0.0377,
江東 (Koto),2020-08-27,19:01～20:00,0.0394,0.0352,0.0376,
江東 (Koto),2020-08-27,18:01～19:00,0.0397,0.0343,0.0374,
江東 (Koto),2020-08-27,17:01～18:00,0.0405,0.0350,0.0375,
江東 (Koto),2020-08-27,16:01～17:00,0.0392,0.0350,0.0372,
江東 (Koto),2020-08-27,15:01～16:00,0.0391,0.0356,0.0374,
江東 (Koto),2020-08-27,14:01～15:00,0.0404,0.0353,0.0377,
江東 (Koto),2020-08-27,13:01～14:00,0.0398,0.0354,0.0378,
江東 (Koto),2020-08-27,12:01～13:00,0.0408,0.0075,0.0377,
江東 (Koto),2020-08-27,11:01～12:00,0.0418,0.0354,0.0384,
江東 (Koto),2020-08-27,10:01～11:00,0.0403,0.0365,0.0384,
江東 (Koto),2020-08-27,09:01～10:00,0.0402,0.0360,0.0381,
江東 (Koto),2020-08-27,08:01～09:00,0.0405,0.0354,0.0383,
江東 (Koto),2020-08-27,07:01～08:00,0.0405,0.0363,0.0384,
江東 (Koto),2020-08-27,06:01～07:00,0.0409,0.0357,0.0384,
江東 (Koto),2020-08-27,05:01～06:00,0.0407,0.0363,0.0383,
江東 (Koto),2020-08-27,04:01～05:00,0.0406,0.0366,0.0385,
江東 (Koto),2020-08-27,03:01～04:00,0.0406,0.0362,0.0383,
江東 (Koto),2020-08-27,02:01～03:00,0.0408,0.0356,0.0383,
江東 (Koto),2020-08-27,01:01～02:00,0.0404,0.0361,0.0385,
江東 (Koto),2020-08-27,00:01～01:00,0.0409,0.0364,0.0384,
江東 (Koto),2020-08-26,23:01～24:00,0.0412,0.0356,0.0385,
江東 (Koto),2020-08-26,22:01～23:00,0.0402,0.0359,0.0382,
江東 (Koto),2020-08-26,21:01～22:00,0.0397,0.0364,0.0383,
江東 (Koto),2020-08-26,20:01～21:00,0.0398,0.0361,0.0381,
江東 (Koto),2020-08-26,19:01～20:00,0.0404,0.0352,0.0377,
江東 (Koto),2020-08-26,18:01～19:00,0.0400,0.0359,0.0378,
江東 (Koto),2020-08-26,17:01～18:00,0.0403,0.0350,0.0379,
江東 (Koto),2020-08-26,16:01～17:00,0.0399,0.0350,0.0379,
江東 (Koto),2020-08-26,15:01～16:00,0.0399,0.0358,0.0379,
江東 (Koto),2020-08-26,14:01～15:00,0.0398,0.0359,0.0383,
江東 (Koto),2020-08-26,13:01～14:00,0.0405,0.0363,0.0381,
江東 (Koto),2020-08-26,12:01～13:00,0.0408,0.0364,0.0387,
江東 (Koto),2020-08-26,11:01～12:00,0.0410,0.0363,0.0382,
江東 (Koto),2020-08-26,10:01～11:00,0.0405,0.0367,0.0383,
江東 (Koto),2020-08-26,09:01～10:00,0.0405,0.0355,0.0383,
江東 (Koto),2020-08-26,08:01～09:00,0.0419,0.0364,0.0383,
江東 (Koto),2020-08-26,07:01～08:00,0.0410,0.0363,0.0383,
江東 (Koto),2020-08-26,06:01～07:00,0.0403,0.0362,0.0381,
江東 (Koto),2020-08-26,05:01～06:00,0.0403,0.0372,0.0385,
江東 (Koto),2020-08-26,04:01～05:00,0.0407,0.0365,0.0383,
江東 (Koto),2020-08-26,03:01～04:00,0.0405,0.0361,0.0383,
江東 (Koto),2020-08-26,02:01～03:00,0.0408,0.0360,0.0384,
江東 (Koto),2020-08-26,01:01～02:00,0.0403,0.0360,0.0382,
江東 (Koto),2020-08-26,00:01～01:00,0.0404,0.0364,0.0382,
江東 (Koto),2020-08-25,23:01～24:00,0.0402,0.0360,0.0382,
江東 (Koto),2020-08-25,22:01～23:00,0.0412,0.0361,0.0384,
江東 (Koto),2020-08-25,21:01～22:00,0.0401,0.0357,0.0384,
江東 (Koto),2020-08-25,20:01～21:00,0.0410,0.0357,0.0381,
江東 (Koto),2020-08-25,19:01～20:00,0.0397,0.0359,0.0379,
江東 (Koto),2020-08-25,18:01～19:00,0.0402,0.0352,0.0378,
江東 (Koto),2020-08-25,17:01～18:00,0.0396,0.0359,0.0379,
江東 (Koto),2020-08-25,16:01～17:00,0.0400,0.0359,0.0379,
江東 (Koto),2020-08-25,15:01～16:00,0.0402,0.0360,0.0379,
江東 (Koto),2020-08-25,14:01～15:00,0.0406,0.0364,0.0384,
江東 (Koto),2020-08-25,13:01～14:00,0.0402,0.0362,0.0382,
江東 (Koto),2020-08-25,12:01～13:00,0.0402,0.0360,0.0383,
江東 (Koto),2020-08-25,11:01～12:00,0.0401,0.0358,0.0382,
江東 (Koto),2020-08-25,10:01～11:00,0.0409,0.0364,0.0384,
江東 (Koto),2020-08-25,09:01～10:00,0.0398,0.0360,0.0380,
江東 (Koto),2020-08-25,08:01～09:00,0.0398,0.0364,0.0382,
江東 (Koto),2020-08-25,07:01～08:00,0.0406,0.0359,0.0382,
江東 (Koto),2020-08-25,06:01～07:00,0.0402,0.0349,0.0382,
江東 (Koto),2020-08-25,05:01～06:00,0.0402,0.0356,0.0382,
江東 (Koto),2020-08-25,04:01～05:00,0.0402,0.0359,0.0381,
江東 (Koto),2020-08-25,03:01～04:00,0.0402,0.0364,0.0381,
江東 (Koto),2020-08-25,02:01～03:00,0.0405,0.0358,0.0379,
江東 (Koto),2020-08-25,01:01～02:00,0.0404,0.0364,0.0380,
江東 (Koto),2020-08-25,00:01～01:00,0.0402,0.0362,0.0379,
江東 (Koto),2020-08-24,23:01～24:00,0.0402,0.0361,0.0382,
江東 (Koto),2020-08-24,22:01～23:00,0.0402,0.0356,0.0382,
江東 (Koto),2020-08-24,21:01～22:00,0.0400,0.0358,0.0377,
江東 (Koto),2020-08-24,20:01～21:00,0.0399,0.0360,0.0380,
江東 (Koto),2020-08-24,19:01～20:00,0.0401,0.0357,0.0378,
江東 (Koto),2020-08-24,18:01～19:00,0.0404,0.0358,0.0378,
江東 (Koto),2020-08-24,17:01～18:00,0.0399,0.0354,0.0377,
江東 (Koto),2020-08-24,16:01～17:00,0.0405,0.0353,0.0377,
江東 (Koto),2020-08-24,15:01～16:00,0.0401,0.0350,0.0377,
江東 (Koto),2020-08-24,14:01～15:00,0.0395,0.0358,0.0378,
江東 (Koto),2020-08-24,13:01～14:00,0.0429,0.0353,0.0383,
江東 (Koto),2020-08-24,12:01～13:00,0.0399,0.0351,0.0380,
江東 (Koto),2020-08-24,11:01～12:00,0.0403,0.0360,0.0381,
江東 (Koto),2020-08-24,10:01～11:00,0.0404,0.0354,0.0378,
江東 (Koto),2020-08-24,09:01～10:00,0.0402,0.0347,0.0379,
江東 (Koto),2020-08-24,08:01～09:00,0.0402,0.0363,0.0381,
江東 (Koto),2020-08-24,07:01～08:00,0.0402,0.0358,0.0380,
江東 (Koto),2020-08-24,06:01～07:00,0.0405,0.0354,0.0380,
江東 (Koto),2020-08-24,05:01～06:00,0.0397,0.0362,0.0381,
江東 (Koto),2020-08-24,04:01～05:00,0.0403,0.0356,0.0378,
江東 (Koto),2020-08-24,03:01～04:00,0.0398,0.0360,0.0379,
江東 (Koto),2020-08-24,02:01～03:00,0.0407,0.0359,0.0380,
江東 (Koto),2020-08-24,01:01～02:00,0.0412,0.0351,0.0380,
江東 (Koto),2020-08-24,00:01～01:00,0.0398,0.0353,0.0378,
